Location: Aytr�
(46.1357°N, 1.1145°W)
Time: 22:25:56
(UTC+00:00)

Nauka - Pass Details

Date: 24 September 2021
Orbit: 417 x 423 km, 51.6° (Epoch: 16 October)

Event Time Altitude Azimuth Distance (km) Brightness Sun altitude
Rises 20:28:06 0° 292° (WNW) 2,366 ? -25.9°
Reaches altitude 10° 20:30:19 10° 302° (WNW) 1,502 ? -26.2°
Enters shadow 20:32:05 24° 324° (NW) 919 ? -26.5°
